Time,TemperatureF,DewpointF,PressureIn,WindDirection,WindDirectionDegrees,WindSpeedMPH,WindSpeedGustMPH,Humidity,HourlyPrecipIn,Conditions,Clouds,dailyrainin,SoftwareType,DateUTC
2013-04-02 00:05:00,50.0,31.0,30.00,West,278,1.0,5.0,49,0.00,,,0.00,weatherlink.com 1.10,2013-04-02 04:05:00,
2013-04-02 00:20:00,49.7,31.0,30.01,WNW,290,0.0,4.0,48,0.00,,,0.00,weatherlink.com 1.10,2013-04-02 04:20:00,
2013-04-02 00:35:00,48.4,30.0,30.02,ESE,122,0.0,1.0,50,0.00,,,0.00,weatherlink.com 1.10,2013-04-02 04:35:00,
2013-04-02 00:50:00,47.1,32.0,30.02,NNE,30,3.0,3.0,56,0.00,,,0.00,weatherlink.com 1.10,2013-04-02 04:50:00,
2013-04-02 01:05:00,47.3,31.0,30.03,WNW,294,0.0,2.0,54,0.00,,,0.00,weatherlink.com 1.10,2013-04-02 05:05:00,
2013-04-02 01:20:00,47.1,30.0,30.04,WNW,300,0.0,2.0,52,0.00,,,0.00,weatherlink.com 1.10,2013-04-02 05:20:00,
2013-04-02 01:35:00,46.1,30.0,30.04,NNE,19,0.0,1.0,53,0.00,,,0.00,weatherlink.com 1.10,2013-04-02 05:35:00,
2013-04-02 01:50:00,44.9,30.0,30.05,SE,135,0.0,1.0,57,0.00,,,0.00,weatherlink.com 1.10,2013-04-02 05:50:00,
2013-04-02 02:05:00,44.1,32.0,30.05,NNW,342,0.0,1.0,62,0.00,,,0.00,weatherlink.com 1.10,2013-04-02 06:05:00,
2013-04-02 02:20:00,43.9,31.0,30.05,NNW,342,0.0,0.0,60,0.00,,,0.00,weatherlink.com 1.10,2013-04-02 06:20:00,
2013-04-02 02:35:00,42.9,32.0,30.05,NNW,342,0.0,0.0,65,0.00,,,0.00,weatherlink.com 1.10,2013-04-02 06:35:00,
2013-04-02 02:50:00,42.7,31.0,30.05,NE,44,0.0,0.0,64,0.00,,,0.00,weatherlink.com 1.10,2013-04-02 06:50:00,
2013-04-02 03:05:00,42.1,31.0,30.05,NE,44,0.0,0.0,64,0.00,,,0.00,weatherlink.com 1.10,2013-04-02 07:05:00,
2013-04-02 03:20:00,41.1,30.0,30.05,NE,44,0.0,0.0,66,0.00,,,0.00,weatherlink.com 1.10,2013-04-02 07:20:00,
2013-04-02 03:35:00,41.1,30.0,30.05,NE,43,0.0,0.0,65,0.00,,,0.00,weatherlink.com 1.10,2013-04-02 07:35:00,
2013-04-02 03:50:00,40.1,29.0,30.05,NE,43,0.0,0.0,65,0.00,,,0.00,weatherlink.com 1.10,2013-04-02 07:50:00,
2013-04-02 04:05:00,39.2,29.0,30.05,NE,49,0.0,0.0,68,0.00,,,0.00,weatherlink.com 1.10,2013-04-02 08:05:00,
2013-04-02 04:20:00,38.4,30.0,30.05,NE,49,0.0,0.0,73,0.00,,,0.00,weatherlink.com 1.10,2013-04-02 08:20:00,
2013-04-02 04:36:00,37.1,30.0,30.06,NE,49,0.0,0.0,76,0.00,,,0.00,weatherlink.com 1.10,2013-04-02 08:36:00,
2013-04-02 04:51:00,36.1,29.0,30.06,NE,49,0.0,0.0,76,0.00,,,0.00,weatherlink.com 1.10,2013-04-02 08:51:00,
2013-04-02 05:36:00,32.9,28.0,30.09,NE,49,0.0,0.0,82,0.00,,,0.00,weatherlink.com 1.10,2013-04-02 09:36:00,
2013-04-02 05:51:00,32.0,28.0,30.10,NE,49,0.0,0.0,85,0.00,,,0.00,weatherlink.com 1.10,2013-04-02 09:51:00,
2013-04-02 06:06:00,31.3,28.0,30.11,NE,49,0.0,0.0,87,0.00,,,0.00,weatherlink.com 1.10,2013-04-02 10:06:00,
2013-04-02 06:21:00,30.9,28.0,30.11,NE,49,0.0,0.0,89,0.00,,,0.00,weatherlink.com 1.10,2013-04-02 10:21:00,
2013-04-02 06:36:00,30.4,28.0,30.12,NE,50,0.0,0.0,89,0.00,,,0.00,weatherlink.com 1.10,2013-04-02 10:36:00,
2013-04-02 06:51:00,29.9,27.0,30.12,NE,49,0.0,0.0,89,0.00,,,0.00,weatherlink.com 1.10,2013-04-02 10:51:00,
2013-04-02 07:06:00,29.5,27.0,30.14,NE,50,0.0,0.0,90,0.00,,,0.00,weatherlink.com 1.10,2013-04-02 11:06:00,
2013-04-02 07:21:00,29.6,27.0,30.14,NE,50,0.0,0.0,91,0.00,,,0.00,weatherlink.com 1.10,2013-04-02 11:21:00,
2013-04-02 07:36:00,29.7,27.0,30.16,NE,49,0.0,0.0,91,0.00,,,0.00,weatherlink.com 1.10,2013-04-02 11:36:00,
2013-04-02 07:51:00,30.5,29.0,30.16,NE,49,0.0,0.0,92,0.00,,,0.00,weatherlink.com 1.10,2013-04-02 11:51:00,
2013-04-02 08:06:00,31.6,29.0,30.17,NE,49,0.0,0.0,91,0.00,,,0.00,weatherlink.com 1.10,2013-04-02 12:06:00,
2013-04-02 08:21:00,33.3,31.0,30.18,NE,50,0.0,0.0,90,0.00,,,0.00,weatherlink.com 1.10,2013-04-02 12:21:00,
2013-04-02 08:36:00,39.0,29.0,30.18,NNW,333,1.0,4.0,68,0.00,,,0.00,weatherlink.com 1.10,2013-04-02 12:36:00,
2013-04-02 08:51:00,42.7,30.0,30.18,NW,304,1.0,3.0,60,0.00,,,0.00,weatherlink.com 1.10,2013-04-02 12:51:00,
2013-04-02 09:06:00,44.6,28.0,30.18,NNW,330,0.0,4.0,52,0.00,,,0.00,weatherlink.com 1.10,2013-04-02 13:06:00,
2013-04-02 09:22:00,46.3,27.0,30.18,NE,55,3.0,5.0,47,0.00,,,0.00,weatherlink.com 1.10,2013-04-02 13:22:00,
2013-04-02 09:52:00,47.9,27.0,30.17,NNW,338,3.0,6.0,44,0.00,,,0.00,weatherlink.com 1.10,2013-04-02 13:52:00,
2013-04-02 10:07:00,48.4,25.0,30.17,North,352,0.0,5.0,41,0.00,,,0.00,weatherlink.com 1.10,2013-04-02 14:07:00,
2013-04-02 10:22:00,48.8,24.0,30.17,NW,316,3.0,8.0,38,0.00,,,0.00,weatherlink.com 1.10,2013-04-02 14:22:00,
2013-04-02 10:37:00,49.5,24.0,30.17,WSW,249,6.0,8.0,37,0.00,,,0.00,weatherlink.com 1.10,2013-04-02 14:37:00,
2013-04-02 10:52:00,49.7,23.0,30.17,WNW,294,4.0,11.0,35,0.00,,,0.00,weatherlink.com 1.10,2013-04-02 14:52:00,
2013-04-02 11:07:00,50.7,24.0,30.17,WNW,283,3.0,6.0,35,0.00,,,0.00,weatherlink.com 1.10,2013-04-02 15:07:00,
2013-04-02 11:22:00,51.0,24.0,30.17,West,281,3.0,8.0,35,0.00,,,0.00,weatherlink.com 1.10,2013-04-02 15:22:00,
2013-04-02 11:37:00,51.5,24.0,30.17,West,269,2.0,8.0,34,0.00,,,0.00,weatherlink.com 1.10,2013-04-02 15:37:00,
2013-04-02 11:52:00,52.0,24.0,30.16,West,279,3.0,9.0,34,0.00,,,0.00,weatherlink.com 1.10,2013-04-02 15:52:00,
2013-04-02 12:07:00,52.4,22.0,30.15,NW,314,5.0,7.0,31,0.00,,,0.00,weatherlink.com 1.10,2013-04-02 16:07:00,
2013-04-02 12:22:00,53.0,22.0,30.15,SW,216,3.0,8.0,30,0.00,,,0.00,weatherlink.com 1.10,2013-04-02 16:22:00,
2013-04-02 12:37:00,53.8,24.0,30.15,WNW,300,3.0,7.0,32,0.00,,,0.00,weatherlink.com 1.10,2013-04-02 16:37:00,
2013-04-02 12:52:00,53.9,23.0,30.15,NNW,331,1.0,9.0,30,0.00,,,0.00,weatherlink.com 1.10,2013-04-02 16:52:00,
2013-04-02 13:07:00,54.4,23.0,30.14,West,281,3.0,9.0,29,0.00,,,0.00,weatherlink.com 1.10,2013-04-02 17:07:00,
2013-04-02 13:22:00,55.2,25.0,30.14,SSW,198,2.0,6.0,31,0.00,,,0.00,weatherlink.com 1.10,2013-04-02 17:22:00,
2013-04-02 13:37:00,55.3,23.0,30.13,NW,306,0.0,7.0,29,0.00,,,0.00,weatherlink.com 1.10,2013-04-02 17:37:00,
2013-04-02 13:52:00,55.2,23.0,30.12,NW,316,4.0,17.0,29,0.00,,,0.00,weatherlink.com 1.10,2013-04-02 17:52:00,
2013-04-02 14:07:00,55.5,24.0,30.12,WNW,291,3.0,9.0,30,0.00,,,0.00,weatherlink.com 1.10,2013-04-02 18:07:00,
2013-04-02 14:37:00,55.9,23.0,30.11,WNW,282,2.0,14.0,28,0.00,,,0.00,weatherlink.com 1.10,2013-04-02 18:37:00,
2013-04-02 14:52:00,56.0,21.0,30.10,WNW,285,2.0,8.0,26,0.00,,,0.00,weatherlink.com 1.10,2013-04-02 18:52:00,
2013-04-02 15:07:00,56.3,20.0,30.10,WNW,303,4.0,17.0,24,0.00,,,0.00,weatherlink.com 1.10,2013-04-02 19:07:00,
2013-04-02 15:37:00,56.4,21.0,30.09,WNW,290,2.0,12.0,25,0.00,,,0.00,weatherlink.com 1.10,2013-04-02 19:37:00,
2013-04-02 15:52:00,56.7,23.0,30.09,WNW,283,5.0,10.0,27,0.00,,,0.00,weatherlink.com 1.10,2013-04-02 19:52:00,
2013-04-02 16:07:00,56.1,23.0,30.08,SSW,201,4.0,9.0,28,0.00,,,0.00,weatherlink.com 1.10,2013-04-02 20:07:00,
2013-04-02 16:22:00,57.0,21.0,30.08,NW,325,2.0,8.0,25,0.00,,,0.00,weatherlink.com 1.10,2013-04-02 20:22:00,
2013-04-02 16:37:00,56.7,20.0,30.08,West,260,2.0,8.0,24,0.00,,,0.00,weatherlink.com 1.10,2013-04-02 20:37:00,
2013-04-02 17:07:00,56.5,21.0,30.08,WSW,243,4.0,7.0,25,0.00,,,0.00,weatherlink.com 1.10,2013-04-02 21:07:00,
2013-04-02 17:37:00,56.4,19.0,30.09,West,274,3.0,15.0,23,0.00,,,0.00,weatherlink.com 1.10,2013-04-02 21:37:00,
2013-04-02 18:07:00,56.4,20.0,30.09,SW,229,4.0,5.0,24,0.00,,,0.00,weatherlink.com 1.10,2013-04-02 22:07:00,
2013-04-02 18:22:00,56.1,21.0,30.09,West,262,1.0,4.0,26,0.00,,,0.00,weatherlink.com 1.10,2013-04-02 22:22:00,
2013-04-02 18:37:00,55.6,21.0,30.10,WNW,291,2.0,5.0,26,0.00,,,0.00,weatherlink.com 1.10,2013-04-02 22:37:00,
2013-04-02 18:52:00,55.2,22.0,30.09,NNW,342,1.0,3.0,27,0.00,,,0.00,weatherlink.com 1.10,2013-04-02 22:52:00,
2013-04-02 19:07:00,54.4,25.0,30.09,WNW,283,0.0,1.0,32,0.00,,,0.00,weatherlink.com 1.10,2013-04-02 23:07:00,
2013-04-02 19:22:00,52.8,25.0,30.10,WNW,284,0.0,0.0,34,0.00,,,0.00,weatherlink.com 1.10,2013-04-02 23:22:00,
2013-04-02 19:37:00,50.4,27.0,30.10,WNW,284,0.0,0.0,40,0.00,,,0.00,weatherlink.com 1.10,2013-04-02 23:37:00,
2013-04-02 19:52:00,48.1,28.0,30.11,WNW,284,0.0,0.0,46,0.00,,,0.00,weatherlink.com 1.10,2013-04-02 23:52:00,
2013-04-02 20:07:00,46.1,30.0,30.11,WNW,284,0.0,0.0,53,0.00,,,0.00,weatherlink.com 1.10,2013-04-03 00:07:00,
2013-04-02 20:22:00,44.2,29.0,30.11,WNW,284,0.0,0.0,55,0.00,,,0.00,weatherlink.com 1.10,2013-04-03 00:22:00,
2013-04-02 20:37:00,42.3,29.0,30.12,WNW,284,0.0,0.0,59,0.00,,,0.00,weatherlink.com 1.10,2013-04-03 00:37:00,
2013-04-02 20:52:00,41.0,29.0,30.12,WNW,284,0.0,0.0,62,0.00,,,0.00,weatherlink.com 1.10,2013-04-03 00:52:00,
2013-04-02 21:22:00,38.7,30.0,30.14,WNW,284,0.0,0.0,70,0.00,,,0.00,weatherlink.com 1.10,2013-04-03 01:22:00,
2013-04-02 21:37:00,37.8,29.0,30.14,WNW,284,0.0,0.0,71,0.00,,,0.00,weatherlink.com 1.10,2013-04-03 01:37:00,
2013-04-02 21:52:00,36.9,30.0,30.14,WNW,284,0.0,0.0,75,0.00,,,0.00,weatherlink.com 1.10,2013-04-03 01:52:00,
2013-04-02 22:07:00,36.3,30.0,30.14,WNW,284,0.0,0.0,77,0.00,,,0.00,weatherlink.com 1.10,2013-04-03 02:07:00,
2013-04-02 22:23:00,35.5,30.0,30.16,WNW,284,0.0,0.0,79,0.00,,,0.00,weatherlink.com 1.10,2013-04-03 02:23:00,
2013-04-02 22:37:00,35.0,29.0,30.15,WNW,284,0.0,0.0,80,0.00,,,0.00,weatherlink.com 1.10,2013-04-03 02:37:00,
2013-04-02 22:52:00,34.4,29.0,30.16,SSW,203,0.0,0.0,81,0.00,,,0.00,weatherlink.com 1.10,2013-04-03 02:52:00,
2013-04-02 23:07:00,33.6,29.0,30.16,SSW,203,0.0,0.0,82,0.00,,,0.00,weatherlink.com 1.10,2013-04-03 03:07:00,
2013-04-02 23:22:00,33.5,30.0,30.16,SSW,203,0.0,0.0,85,0.00,,,0.00,weatherlink.com 1.10,2013-04-03 03:22:00,
2013-04-02 23:37:00,32.9,29.0,30.17,SSW,203,0.0,0.0,85,0.00,,,0.00,weatherlink.com 1.10,2013-04-03 03:37:00,
2013-04-02 23:52:00,32.3,29.0,30.18,SSW,203,0.0,0.0,86,0.00,,,0.00,weatherlink.com 1.10,2013-04-03 03:52:00,